Theta_e
310 311 312 313 310 308 305 304 303 301 301 300 299 299 299 298 297 297 296 296 295 295
309 308 310 312 309 307 305 304 300 299 299 298 297 297 296 295 290 292 293 289 289 292
308 308 308 308 305 305 302 301 294 291 290 290 290 289 291 289 288 288 289 289 286 288
304 305 300 301 300 292 290 290 290 290 289 288 288 288 288 288 287 287 287 289 287 288
298 296 290 291 290 290 290 289 289 289 289 288 288 288 287 287 287 287 286 287 287 287
290 290 289 288 288 290 291 289 289 289 289 288 287 287 287 287 287 287 286 286 286 286
287 288 288 288 288 289 289 288 289 289 289 289 288 287 287 286 286 286 286 286 286 286
286 286 286 286 287 287 288 288 288 287 287 287 287 287 286 286 286 285 285 285 285 286
285 285 285 286 286 286 286 286 286 286 286 285 286 288 288 286 285 285 284 284 284 285
282 282 282 283 284 284 285 285 285 285 285 285 285 288 288 287 285 285 285 284 284 283
281 280 280 281 281 282 283 283 283 283 284 283 284 288 287 286 284 284 284 284 284 283
281 281 281 280 279 281 281 281 282 282 282 282 284 287 287 285 283 283 283 283 283 283
280 280 280 280 280 281 281 280 281 281 282 282 283 287 287 285 283 282 282 283 283 283
278 278 279 279 279 280 279 280 279 279 280 280 281 284 287 287 283 282 282 282 281 282
Wind_Speed
17 12 13 15 12 12 13 14 16 17 16 16 16 13 12 9 8 8 6 8 5 4
13 15 14 15 14 11 13 11 14 16 16 16 15 13 12 8 7 7 5 6 6 4
13 13 13 9 12 12 10 12 11 10 8 8 9 10 10 8 8 9 7 6 8 5
10 11 8 7 7 8 7 7 12 14 13 12 13 12 11 10 12 11 10 8 9 8
5 6 7 7 7 10 10 11 14 14 15 14 13 13 14 13 11 12 12 10 10 9
4 6 7 7 8 10 11 11 10 12 15 17 16 15 13 13 12 11 10 11 10 10
1 2 4 5 8 10 10 11 12 12 12 13 13 16 15 13 12 10 9 9 9 10
4 3 4 4 5 6 8 9 11 12 11 10 11 9 11 12 13 12 10 8 7 7
3 4 4 4 5 6 6 7 8 10 13 12 8 20 20 15 11 10 10 9 8 7
4 4 4 5 5 6 7 8 8 8 9 13 11 21 21 18 9 10 9 9 8 7
5 5 5 6 6 6 6 8 8 9 8 7 9 20 19 16 10 8 9 8 8 8
6 5 5 6 6 5 6 6 7 7 9 9 9 18 20 13 8 8 8 7 8 8
6 6 5 5 5 3 5 5 5 6 6 8 6 15 18 14 7 8 7 7 7 12
7 6 6 4 5 4 5 5 5 5 5 5 5 6 15 15 7 6 6 5 6 5
Wind_Direction
207 210 211 203 197 194 192 194 188 188 187 184 180 178 177 176 174 172 172 168 150 147
205 209 212 207 201 198 192 188 183 188 185 181 178 174 168 168 160 154 146 136 135 138
206 206 210 211 196 200 191 178 157 165 162 158 153 149 156 148 148 146 153 154 155 152
207 203 196 192 179 155 130 146 161 166 161 164 159 158 152 161 160 161 161 159 165 172
180 160 158 161 149 149 156 161 167 173 169 169 171 169 166 164 168 167 166 166 163 167
148 159 167 162 156 164 167 173 174 180 185 174 171 171 170 165 164 166 165 164 164 164
86 134 160 159 170 176 176 171 177 177 186 185 177 172 165 159 158 157 160 160 164 165
49 66 114 143 163 165 176 181 175 164 165 165 164 173 165 157 155 154 151 151 155 165
72 86 91 115 140 151 149 152 160 171 162 158 160 164 161 149 147 147 153 156 155 161
52 77 81 104 121 137 145 144 148 151 161 153 144 159 154 146 141 146 150 156 160 175
67 63 71 90 97 103 123 130 131 128 126 124 137 152 149 144 148 151 152 166 165 173
45 68 78 72 77 82 99 105 110 112 117 121 141 157 154 146 152 156 163 167 174 177
34 48 49 67 67 60 73 84 98 98 102 118 132 164 167 163 159 160 164 166 181 199
30 45 52 52 64 61 84 91 84 89 88 106 134 178 183 167 159 161 158 172 179 188